TimeEDT,TemperatureF,Dew PointF,Humidity,Sea Level PressureIn,VisibilityMPH,Wind Direction,Wind SpeedMPH,Gust SpeedMPH,PrecipitationIn,Events,Conditions,WindDirDegrees,DateUTC
12:53 AM,73.0,55.0,53,29.60,10.0,SSE,13.8,20.7,N/A,,Clear,160,2013-04-19 04:53:00
1:53 AM,73.0,55.9,55,29.55,10.0,South,15.0,24.2,N/A,,Partly Cloudy,170,2013-04-19 05:53:00
2:53 AM,70.0,59.0,68,29.55,9.0,South,15.0,-,0.00,Rain,Light Rain,190,2013-04-19 06:53:00
3:53 AM,64.9,62.1,90,29.49,5.0,SSE,12.7,21.9,0.09,Rain,Light Rain,160,2013-04-19 07:53:00
4:50 AM,64.4,62.6,94,29.52,1.8,WSW,9.2,28.8,0.21,Rain,Heavy Rain,250,2013-04-19 08:50:00
4:53 AM,64.0,62.1,93,29.50,1.2,WSW,11.5,-,0.26,Rain,Heavy Rain,240,2013-04-19 08:53:00
4:55 AM,64.4,62.6,94,29.52,1.0,WSW,11.5,-,0.03,Rain,Heavy Rain,250,2013-04-19 08:55:00
5:04 AM,62.6,62.6,100,29.52,1.8,WSW,9.2,-,0.11,Rain,Heavy Rain,250,2013-04-19 09:04:00
5:07 AM,62.6,62.6,100,29.52,2.0,West,11.5,28.8,0.13,Rain,Heavy Rain,270,2013-04-19 09:07:00
5:12 AM,60.8,57.2,88,29.53,3.0,WNW,19.6,28.8,0.15,Rain,Heavy Rain,290,2013-04-19 09:12:00
5:41 AM,50.0,48.2,94,29.57,4.0,WNW,11.5,34.5,0.24,Rain,Heavy Rain,300,2013-04-19 09:41:00
5:48 AM,48.2,48.2,100,29.61,3.0,West,13.8,23.0,0.26,Rain,Rain,270,2013-04-19 09:48:00
5:53 AM,48.9,46.9,93,29.60,5.0,West,13.8,24.2,0.27,Rain,Rain,280,2013-04-19 09:53:00
6:00 AM,48.2,46.4,93,29.61,6.0,WNW,11.5,26.5,0.01,Rain,Light Rain,290,2013-04-19 10:00:00
6:09 AM,48.2,46.4,93,29.61,4.0,West,17.3,28.8,0.04,Rain,Heavy Rain,270,2013-04-19 10:09:00
6:18 AM,46.4,44.6,93,29.63,8.0,West,12.7,28.8,0.05,Rain,Light Rain,280,2013-04-19 10:18:00
6:53 AM,46.0,44.1,93,29.67,9.0,West,12.7,21.9,0.11,Rain,Light Rain,260,2013-04-19 10:53:00
7:50 AM,44.6,42.8,93,29.71,6.0,West,13.8,21.9,0.00,,Overcast,260,2013-04-19 11:50:00
7:53 AM,44.1,43.0,96,29.70,7.0,West,12.7,21.9,0.00,,Overcast,280,2013-04-19 11:53:00
8:13 AM,44.6,42.8,93,29.73,10.0,West,10.4,16.1,N/A,,Overcast,280,2013-04-19 12:13:00
8:53 AM,42.1,39.9,92,29.75,3.0,West,10.4,19.6,N/A,,Overcast,260,2013-04-19 12:53:00
9:17 AM,42.8,39.2,87,29.77,9.0,WSW,10.4,21.9,N/A,,Overcast,250,2013-04-19 13:17:00
9:53 AM,42.1,39.0,89,29.79,10.0,West,12.7,19.6,N/A,,Overcast,260,2013-04-19 13:53:00
10:48 AM,42.8,39.2,87,29.82,10.0,SW,16.1,23.0,N/A,,Overcast,230,2013-04-19 14:48:00
10:53 AM,43.0,37.0,80,29.81,10.0,West,17.3,27.6,N/A,,Overcast,260,2013-04-19 14:53:00
11:29 AM,42.8,35.6,76,29.84,10.0,West,12.7,28.8,N/A,,Overcast,260,2013-04-19 15:29:00
11:53 AM,43.0,34.0,71,29.83,10.0,WSW,13.8,23.0,N/A,,Overcast,250,2013-04-19 15:53:00
12:53 PM,42.1,32.0,67,29.84,10.0,West,13.8,19.6,N/A,,Overcast,270,2013-04-19 16:53:00
1:40 PM,42.8,33.8,70,29.87,10.0,SW,11.5,19.6,N/A,,Overcast,230,2013-04-19 17:40:00
1:53 PM,43.0,33.1,68,29.87,10.0,WSW,12.7,20.7,N/A,,Overcast,240,2013-04-19 17:53:00
2:00 PM,42.8,33.8,70,29.86,10.0,WSW,9.2,-,N/A,,Overcast,240,2013-04-19 18:00:00
2:53 PM,45.0,32.0,60,29.86,10.0,West,11.5,25.3,N/A,,Overcast,260,2013-04-19 18:53:00
3:53 PM,45.0,32.0,60,29.87,10.0,West,10.4,19.6,N/A,,Overcast,260,2013-04-19 19:53:00
4:53 PM,45.0,33.1,63,29.88,10.0,WSW,8.1,23.0,N/A,,Overcast,250,2013-04-19 20:53:00
5:53 PM,45.0,30.9,58,29.91,10.0,West,13.8,24.2,N/A,,Overcast,260,2013-04-19 21:53:00
6:53 PM,44.1,30.9,60,29.95,10.0,West,10.4,19.6,N/A,,Overcast,260,2013-04-19 22:53:00
7:53 PM,44.1,30.9,60,29.96,10.0,West,15.0,19.6,N/A,,Overcast,270,2013-04-19 23:53:00
8:53 PM,43.0,30.9,62,30.00,10.0,West,13.8,20.7,N/A,,Overcast,260,2013-04-20 00:53:00
9:53 PM,41.0,33.1,73,30.02,10.0,WSW,5.8,-,0.00,,Overcast,250,2013-04-20 01:53:00
10:53 PM,37.9,32.0,79,30.04,10.0,SW,6.9,-,N/A,,Clear,220,2013-04-20 02:53:00
11:53 PM,37.0,32.0,82,30.06,10.0,SW,6.9,-,N/A,,Clear,220,2013-04-20 03:53:00